EW6790 Weather Reports


time (UTC)temp
C
wind
direction
speed
KPH
gust
KPH
rain 1hr
cm
rain 24hr
cm
rain mn
cm
humidity
%
barometer
mb
20260509041556 14 314 0.0 4.8 0.00 0.00 0.00 37 1003.3
20260509040037 15 304 4.8 9.7 0.00 0.00 0.00 36 1003.4
20260509034532 15 313 3.2 6.4 0.00 0.00 0.00 35 1003.4
20260509033011 16 318 1.6 4.8 0.00 0.00 0.00 34 1003.3
20260509031510 16 317 1.6 8.0 0.00 0.00 0.00 33 1003.2
20260509030049 16 313 4.8 11.3 0.00 0.00 0.00 32 1003.0
20260509024547 17 316 4.8 14.5 0.00 0.00 0.00 31 1002.8
20260509023033 17 321 6.4 12.9 0.00 0.00 0.00 31 1002.6
20260509021525 17 314 8.0 16.1 0.00 0.00 0.00 31 1002.3
20260509020010 18 326 8.0 16.1 0.00 0.00 0.00 31 1002.1
20260509014502 18 327 6.4 19.3 0.00 0.00 0.00 32 1001.9
20260509013050 19 316 6.4 17.7 0.00 0.00 0.00 31 1001.7
20260509011543 20 314 8.0 17.7 0.00 0.00 0.00 30 1001.4
20260509010023 20 319 11.3 20.9 0.00 0.00 0.00 29 1001.3
20260509004534 21 314 9.7 22.5 0.00 0.00 0.00 28 1001.2
20260509003006 22 320 14.5 25.7 0.00 0.00 0.00 27 1001.1
20260509001507 22 264 9.7 25.7 0.00 0.00 0.00 27 1001.2
20260509000052 22 316 12.9 30.6 0.00 0.00 0.00 27 1001.0
20260508234546 22 304 6.4 16.1 0.00 0.00 0.00 25 1001.0
20260508233021 23 324 4.8 12.9 0.00 0.00 0.00 24 1000.9
20260508231520 22 300 4.8 11.3 0.00 0.00 0.00 24 1001.0
20260508230003 23 318 6.4 22.5 0.00 0.00 0.00 23 1001.1
20260508224601 23 330 17.7 32.2 0.00 0.00 0.00 22 1001.0
20260508223043 22 305 4.8 12.9 0.00 0.00 0.00 23 1001.2
20260508221542 23 285 14.5 20.9 0.00 0.00 0.00 22 1001.3
20260508220023 23 280 9.7 24.1 0.00 0.00 0.00 22 1001.4
20260508214520 22 269 3.2 11.3 0.00 0.00 0.00 23 1001.7
20260508213003 22 319 4.8 16.1 0.00 0.00 0.00 23 1001.9
20260508211601 22 285 9.7 27.4 0.00 0.00 0.00 23 1002.1
20260508210042 22 268 6.4 17.7 0.00 0.00 0.00 23 1002.4
20260508204542 23 290 6.4 20.9 0.00 0.00 0.00 22 1002.4
20260508203020 22 310 4.8 16.1 0.00 0.00 0.00 22 1002.8
20260508201523 22 309 9.7 27.4 0.00 0.00 0.00 22 1003.0
20260508200059 22 281 4.8 29.0 0.00 0.00 0.00 22 1003.2
20260508194623 23 283 20.9 40.2 0.00 0.00 0.00 20 1003.2
20260508193037 22 270 16.1 30.6 0.00 0.00 0.00 21 1003.5
20260508191536 22 267 17.7 27.4 0.00 0.00 0.00 20 1003.7
20260508190015 22 319 6.4 24.1 0.00 0.00 0.00 21 1003.9
20260508184512 22 280 14.5 32.2 0.00 0.00 0.00 21 1004.2
20260508183051 21 269 11.3 24.1 0.00 0.00 0.00 21 1004.4
20260508181615 21 259 8.0 32.2 0.00 0.00 0.00 22 1004.6
20260508180031 21 278 20.9 40.2 0.00 0.00 0.00 21 1004.7
20260508174530 21 300 8.0 20.9 0.00 0.00 0.00 21 1005.0
20260508173002 21 264 11.3 25.7 0.00 0.00 0.00 21 1005.6
20260508171557 21 307 16.1 27.4 0.00 0.00 0.00 22 1005.8
20260508170038 20 249 8.0 32.2 0.00 0.00 0.00 23 1006.1
20260508164534 20 244 9.7 19.3 0.00 0.00 0.00 24 1006.3
20260508163019 20 308 4.8 24.1 0.00 0.00 0.00 24 1006.6
20260508161521 18 260 16.1 25.7 0.00 0.00 0.00 25 1006.6
20260508160055 18 270 16.1 35.4 0.00 0.00 0.00 24 1006.8
20260508154557 18 259 17.7 29.0 0.00 0.00 0.00 25 1006.8
20260508153042 18 261 14.5 27.4 0.00 0.00 0.00 27 1007.2
20260508151531 17 221 17.7 29.0 0.00 0.00 0.00 28 1007.3
20260508150012 17 250 19.3 29.0 0.00 0.00 0.00 29 1007.6
20260508144507 16 220 16.1 30.6 0.00 0.00 0.00 31 1007.7
20260508143050 16 299 19.3 32.2 0.00 0.00 0.00 33 1007.9
20260508141548 15 250 14.5 29.0 0.00 0.00 0.00 33 1008.0
20260508140034 15 193 19.3 32.2 0.00 0.00 0.00 36 1008.0
20260508134529 14 231 16.1 27.4 0.00 0.00 0.00 37 1008.2
20260508133013 12 221 12.9 24.1 0.00 0.00 0.00 40 1008.3
20260508131511 12 186 14.5 22.5 0.00 0.00 0.00 40 1008.4
20260508130054 11 179 16.1 22.5 0.00 0.00 0.00 41 1008.5
20260508124553 10 192 11.3 17.7 0.00 0.00 0.00 47 1008.4
20260508123056 8 193 14.5 19.3 0.00 0.00 0.00 48 1008.4
20260508121554 -17 0.0 0.0 0.00 0.00 0.00 1008.4
20260508120049 -17 0.0 0.0 0.00 0.00 0.00 1008.4
20260508114541 -17 0.0 0.0 0.00 0.00 0.00 1008.3
20260508113039 -17 0.0 0.0 0.00 0.00 0.00 1008.2
20260508111533 -17 0.0 0.0 0.00 0.00 0.00 1008.3
20260508110013 5 195 14.5 17.7 0.00 0.00 0.00 55 1008.4
20260508104511 5 203 14.5 17.7 0.00 0.00 0.00 54 1008.4
20260508103051 5 202 9.7 14.5 0.00 0.00 0.00 55 1008.4
20260508101549 5 203 9.7 12.9 0.00 0.00 0.00 54 1008.6
20260508100029 5 210 9.7 16.1 0.00 0.00 0.00 52 1008.6
20260508094528 6 183 9.7 16.1 0.00 0.00 0.00 49 1008.7
20260508093011 6 175 12.9 19.3 0.00 0.00 0.00 50 1008.7
20260508091507 6 140 9.7 14.5 0.00 0.00 0.00 51 1008.7
20260508090049 6 169 9.7 14.5 0.00 0.00 0.00 50 1008.7
20260508084548 6 173 9.7 14.5 0.00 0.00 0.00 50 1008.8
20260508083029 6 177 11.3 12.9 0.00 0.00 0.00 50 1008.8
20260508081533 6 169 9.7 12.9 0.00 0.00 0.00 48 1008.9
20260508080012 6 182 8.0 0.0 0.00 0.00 0.00 51 1009.0
20260508074507 5 181 6.4 9.7 0.00 0.00 0.00 54 1009.2
20260508073105 5 186 3.2 6.4 0.00 0.00 0.00 54 1009.3
20260508071544 6 191 3.2 6.4 0.00 0.00 0.00 50 1009.3
20260508070046 6 214 1.6 4.8 0.00 0.00 0.00 49 1009.4
20260508064524 6 215 1.6 3.2 0.00 0.00 0.00 52 1009.4
20260508063020 6 155 1.6 4.8 0.00 0.00 0.00 48 1009.5
20260508061503 7 170 1.6 3.2 0.00 0.00 0.00 45 1009.6
20260508060107 8 153 1.6 3.2 0.00 0.00 0.00 43 1009.6
20260508054600 8 171 1.6 3.2 0.00 0.00 0.00 42 1009.7
20260508053104 10 134 1.6 4.8 0.00 0.00 0.00 37 1009.8
20260508051600 10 129 3.2 4.8 0.00 0.00 0.00 36 1009.9
20260508050057 10 131 3.2 4.8 0.00 0.00 0.00 35 1009.9
20260508044606 10 117 0.0 0.0 0.00 0.00 0.00 35 1010.0